Pagrindinis puslapis
METAR-TAF:

METAR-TAF

Oro uostai :

Winston Field

Snyder, Teksasas, Jungtinės Amerikos Valstijos

platuma: 32-41-36N, ilguma: 100-57-01W, Aukštis: 741 m

Dabartinis oras

Ataskaita buvo paskelbta 24 minutes, ne 03:15 UTC
Vėjas 11 kt iš Pietų/Pietryčių
Temperatūra 30°C
Drėgmė 40%
Slėgis 1016 hPa
Matomumas: 16.1 km
Giedras dangus

METAR: KSNK 160315Z AUTO 16011KT 10SM CLR 30/15 A2999 RMK AO2 T02990150

Laikas: 22:39 (03:39 UTC)


TAF: trūkstamas

Orai ataskaitas ir orų prognozės (METAR, TAF).

turimą stotys yra geltonos ir raudonos taškus žemėlapyje.

Perkelti pele per norėdami pamatyti stoties vardą.

Tada spustelėkite, norėdami matyti oro stebėjimo ir prognozės.

Norėdami pakeisti žemėlapį: spustelėkite ant žalios mygtukų su juodo kryžiaus žemyn,; žalią mygtuką su brūkšneliu, jei norite nutolinti; arba žalių rodyklių gretimoms žemėlapius.


METAR-TAF: